• In France
  • List of Countries
  • For 7 days
  • Water Temperature
  • Satellite Maps
  • Weather Map
  • Weather Widgets
  • user-avatar
    Login

    Hourly Weather Shamilkala

    Today, 19 October, Friday

    Time Temperature Precipitation Wind Pressure Humidity
    00:00 +14°C° 0 mm 2 mps 713 mmHg 64%
    01:00 +14°C° 0 mm 2 mps 713 mmHg 61%
    02:00 +14°C° 0 mm 2 mps 713 mmHg 58%
    03:00 +13°C° 0 mm 2 mps 713 mmHg 54%
    04:00 +13°C° 0 mm 2 mps 713 mmHg 51%
    05:00 +13°C° 0 mm 2 mps 713 mmHg 49%
    06:00 +13°C° 0 mm 2 mps 713 mmHg 47%
    07:00 +15°C° 0 mm 2 mps 713 mmHg 42%
    08:00 +18°C° 0 mm 2 mps 713 mmHg 38%
    09:00 +20°C° 0 mm 2 mps 714 mmHg 33%
    10:00 +21°C° 0 mm 2 mps 714 mmHg 32%
    11:00 +23°C° 0 mm 2 mps 714 mmHg 31%
    12:00 +24°C° 0 mm 3 mps 713 mmHg 30%
    13:00 +24°C° 0 mm 3 mps 713 mmHg 34%
    14:00 +24°C° 0 mm 3 mps 713 mmHg 39%
    15:00 +22°C° 0 mm 3 mps 713 mmHg 46%
    16:00 +20°C° 0 mm 3 mps 713 mmHg 56%
    17:00 +18°C° 0 mm 2 mps 713 mmHg 66%
    18:00 +16°C° 0 mm 2 mps 712 mmHg 75%
    19:00 +16°C° 0 mm 2 mps 712 mmHg 73%
    20:00 +16°C° 0 mm 2 mps 712 mmHg 72%
    21:00 +16°C° 0 mm 2 mps 712 mmHg 70%
    22:00 +15°C° 0 mm 2 mps 712 mmHg 68%
    23:00 +15°C° 0 mm 2 mps 712 mmHg 67%

    Tomorrow, 20 October, Saturday

    Time Temperature Precipitation Wind Pressure Humidity
    00:00 +15°C° 0 mm 2 mps 711 mmHg 66%
    01:00 +15°C° 0 mm 2 mps 711 mmHg 65%
    02:00 +14°C° 0 mm 2 mps 711 mmHg 64%
    03:00 +14°C° 0 mm 2 mps 711 mmHg 64%
    04:00 +14°C° 0 mm 2 mps 711 mmHg 61%
    05:00 +14°C° 0 mm 2 mps 710 mmHg 58%
    06:00 +14°C° 0 mm 2 mps 710 mmHg 54%
    07:00 +16°C° 0 mm 2 mps 710 mmHg 47%
    08:00 +18°C° 0 mm 2 mps 711 mmHg 40%
    09:00 +22°C° 0 mm 1 mps 711 mmHg 33%
    10:00 +23°C° 0 mm 2 mps 711 mmHg 32%
    11:00 +23°C° 0 mm 2 mps 711 mmHg 32%
    12:00 +24°C° 0 mm 2 mps 711 mmHg 31%
    13:00 +24°C° 0 mm 2 mps 710 mmHg 34%
    14:00 +24°C° 0 mm 2 mps 710 mmHg 37%
    15:00 +24°C° 0 mm 2 mps 710 mmHg 40%
    16:00 +21°C° 0 mm 2 mps 710 mmHg 49%
    17:00 +20°C° 0 mm 1 mps 710 mmHg 58%
    18:00 +18°C° 0 mm 1 mps 710 mmHg 67%
    19:00 +18°C° 0 mm 1 mps 710 mmHg 64%
    20:00 +16°C° 0 mm 1 mps 710 mmHg 61%
    21:00 +16°C° 0 mm 1 mps 710 mmHg 58%
    22:00 +16°C° 0 mm 1 mps 710 mmHg 56%
    23:00 +16°C° 0 mm 1 mps 709 mmHg 55%

    Day after tomorrow, 21 October, Sunday

    Time Temperature Precipitation Wind Pressure Humidity
    00:00 +15°C° 0 mm 1 mps 709 mmHg 53%
    01:00 +15°C° 0 mm 1 mps 709 mmHg 53%
    02:00 +15°C° 0 mm 1 mps 709 mmHg 52%
    03:00 +15°C° 0 mm 1 mps 709 mmHg 52%
    04:00 +15°C° 0 mm 1 mps 709 mmHg 51%
    05:00 +15°C° 0 mm 1 mps 709 mmHg 51%
    06:00 +14°C° 0 mm 1 mps 709 mmHg 50%
    07:00 +16°C° 0 mm 1 mps 709 mmHg 45%
    08:00 +20°C° 0 mm 1 mps 710 mmHg 40%
    09:00 +20°C° 0 mm 0 mps 710 mmHg 36%
    10:00 +23°C° 0 mm 1 mps 710 mmHg 35%
    11:00 +23°C° 0 mm 1 mps 710 mmHg 35%
    12:00 +24°C° 0 mm 2 mps 710 mmHg 34%
    13:00 +24°C° 0 mm 2 mps 710 mmHg 38%
    14:00 +23°C° 0 mm 2 mps 710 mmHg 42%
    15:00 +23°C° 0 mm 2 mps 709 mmHg 46%
    16:00 +21°C° 0 mm 1 mps 709 mmHg 54%
    17:00 +20°C° 0 mm 1 mps 709 mmHg 63%
    18:00 +18°C° 0 mm 1 mps 709 mmHg 72%
    19:00 +18°C° 0 mm 1 mps 709 mmHg 71%
    20:00 +18°C° 0 mm 1 mps 710 mmHg 71%
    21:00 +18°C° 0 mm 1 mps 710 mmHg 70%
    22:00 +16°C° 0 mm 1 mps 710 mmHg 70%
    23:00 +16°C° 0 mm 1 mps 709 mmHg 70%

    22 October, Monday

    Time Temperature Precipitation Wind Pressure Humidity
    00:00 +16°C° 0 mm 1 mps 709 mmHg 70%
    01:00 +15°C° 0 mm 1 mps 709 mmHg 69%
    02:00 +15°C° 0 mm 1 mps 709 mmHg 68%
    03:00 +15°C° 0 mm 1 mps 709 mmHg 67%
    04:00 +15°C° 0 mm 1 mps 709 mmHg 66%
    05:00 +15°C° 0 mm 1 mps 709 mmHg 66%
    06:00 +15°C° 0 mm 1 mps 709 mmHg 65%
    07:00 +16°C° 0 mm 1 mps 710 mmHg 60%
    08:00 +19°C° 0 mm 1 mps 710 mmHg 55%
    09:00 +21°C° 0 mm 1 mps 710 mmHg 51%
    10:00 +21°C° 0 mm 1 mps 710 mmHg 50%
    11:00 +21°C° 0 mm 2 mps 710 mmHg 49%
    12:00 +23°C° 0 mm 2 mps 710 mmHg 48%
    13:00 +23°C° 0 mm 2 mps 710 mmHg 52%
    14:00 +21°C° 0 mm 2 mps 710 mmHg 55%
    15:00 +21°C° 0 mm 2 mps 710 mmHg 59%
    16:00 +20°C° 0 mm 1 mps 710 mmHg 67%
    17:00 +19°C° 0 mm 1 mps 710 mmHg 75%
    18:00 +18°C° 0 mm 1 mps 711 mmHg 83%
    19:00 +16°C° 0 mm 1 mps 711 mmHg 84%
    20:00 +15°C° 0 mm 0 mps 711 mmHg 85%
    21:00 +15°C° 0 mm 0 mps 711 mmHg 87%
    22:00 +14°C° 0 mm 0 mps 711 mmHg 86%
    23:00 +15°C° 0 mm 1 mps 711 mmHg 85%

    23 October, Tuesday

    Time Temperature Precipitation Wind Pressure Humidity
    00:00 +15°C° 0 mm 1 mps 711 mmHg 84%
    01:00 +15°C° 0 mm 1 mps 711 mmHg 82%
    02:00 +15°C° 0 mm 1 mps 711 mmHg 80%
    03:00 +15°C° 0 mm 1 mps 710 mmHg 79%
    04:00 +14°C° 0 mm 1 mps 710 mmHg 76%
    05:00 +14°C° 0 mm 1 mps 710 mmHg 74%
    06:00 +14°C° 0 mm 1 mps 710 mmHg 72%
    07:00 +16°C° 0 mm 1 mps 711 mmHg 66%
    08:00 +19°C° 0 mm 1 mps 711 mmHg 59%
    09:00 +21°C° 0 mm 1 mps 711 mmHg 53%
    10:00 +22°C° 0 mm 1 mps 711 mmHg 51%
    11:00 +23°C° 0 mm 2 mps 711 mmHg 49%
    12:00 +23°C° 0 mm 2 mps 711 mmHg 47%
    13:00 +23°C° 0 mm 2 mps 710 mmHg 49%
    14:00 +23°C° 0 mm 2 mps 710 mmHg 51%
    15:00 +23°C° 0 mm 2 mps 710 mmHg 53%
    16:00 +20°C° 0 mm 2 mps 710 mmHg 60%
    17:00 +19°C° 0 mm 1 mps 710 mmHg 68%
    18:00 +18°C° 0 mm 1 mps 709 mmHg 76%
    19:00 +18°C° 0.1 mm 1 mps 709 mmHg 74%
    20:00 +18°C° 0.1 mm 1 mps 709 mmHg 73%
    21:00 +18°C° 0.1 mm 1 mps 709 mmHg 72%
    22:00 +18°C° 0 mm 1 mps 709 mmHg 70%
    23:00 +16°C° 0 mm 1 mps 709 mmHg 68%

    24 October, Wednesday

    Time Temperature Precipitation Wind Pressure Humidity
    00:00 +16°C° 0 mm 1 mps 708 mmHg 66%
    01:00 +16°C° 0 mm 1 mps 708 mmHg 65%
    02:00 +16°C° 0 mm 1 mps 708 mmHg 64%
    03:00 +16°C° 0 mm 1 mps 708 mmHg 62%
    04:00 +16°C° 0 mm 1 mps 708 mmHg 63%
    05:00 +15°C° 0 mm 1 mps 708 mmHg 64%
    06:00 +15°C° 0 mm 1 mps 708 mmHg 64%
    07:00 +18°C° 0 mm 1 mps 708 mmHg 59%
    08:00 +20°C° 0 mm 1 mps 708 mmHg 54%
    09:00 +21°C° 0 mm 1 mps 708 mmHg 49%
    10:00 +22°C° 0 mm 1 mps 708 mmHg 47%
    11:00 +23°C° 0 mm 2 mps 707 mmHg 44%
    12:00 +24°C° 0 mm 2 mps 707 mmHg 42%
    13:00 +24°C° 0 mm 2 mps 706 mmHg 43%
    14:00 +24°C° 0 mm 2 mps 706 mmHg 44%
    15:00 +24°C° 0 mm 2 mps 705 mmHg 45%
    16:00 +21°C° 0 mm 2 mps 705 mmHg 51%
    17:00 +20°C° 0 mm 2 mps 704 mmHg 56%
    18:00 +18°C° 0 mm 2 mps 704 mmHg 62%
    19:00 +18°C° 0 mm 2 mps 704 mmHg 60%
    20:00 +18°C° 0 mm 2 mps 703 mmHg 58%
    21:00 +18°C° 0 mm 3 mps 703 mmHg 56%
    22:00 +18°C° 0 mm 3 mps 702 mmHg 56%
    23:00 +18°C° 0 mm 3 mps 702 mmHg 57%
    Show more